Wind_Speed
26 25 22 17 15 13 10 9 10 9 15 13 14 11 12 10 10 8 8 6 6 6 5 4 5 4 7 6 7 11 15 10 4 6 11 15 22 25 21 16 16 20 22
28 26 23 19 18 17 15 12 12 10 8 10 12 8 10 8 9 8 9 7 5 8 8 5 6 5 5 3 8 8 8 8 8 10 15 20 19 16 17 15 17 15 22
26 29 25 25 24 22 20 18 14 11 9 11 13 11 11 11 10 10 10 8 7 8 7 7 5 4 5 4 5 6 7 7 10 9 14 17 15 21 18 18 22 24 24
20 18 18 23 23 15 23 20 17 15 12 12 13 12 11 9 11 11 10 8 6 5 5 10 9 5 1 1 3 4 7 11 12 13 14 17 16 18 17 25 29 27 29
22 9 16 22 18 18 19 14 19 19 16 13 13 12 8 9 12 8 5 10 7 5 3 9 6 7 8 5 4 5 7 8 9 10 12 15 18 22 21 22 23 27 25
16 23 12 10 12 9 14 17 17 13 15 13 12 10 9 7 5 7 10 9 5 8 3 12 10 4 3 3 3 5 6 8 8 7 8 12 13 16 20 19 19 20 10
23 18 13 12 10 8 8 10 16 17 13 12 13 12 8 4 4 4 9 9 6 2 6 9 7 4 5 6 6 5 7 8 7 7 9 12 16 16 14 14 17 18 15
18 12 9 4 5 3 2 2 9 16 15 15 12 10 8 9 5 6 11 14 15 14 11 6 6 8 9 8 7 7 8 7 7 8 11 13 14 13 12 9 12 14 16
16 14 11 9 11 9 10 16 17 28 22 20 17 14 11 11 9 12 17 13 13 15 13 13 11 11 12 10 10 12 10 11 11 13 9 15 20 22 20 18 21 20 14
18 14 12 10 10 10 11 11 9 11 14 11 15 15 14 15 11 11 21 21 19 20 17 15 13 11 10 11 11 12 12 16 16 18 20 15 15 21 21 23 23 22 20
15 13 13 12 10 11 14 13 10 12 14 15 15 14 16 15 14 14 16 18 21 17 12 11 11 10 11 12 11 12 13 14 16 16 18 20 22 24 21 20 21 23 23
17 15 13 12 13 14 17 16 14 14 13 14 15 15 13 11 13 13 12 15 14 15 11 9 9 12 12 13 16 14 13 13 15 18 21 24 24 24 23 19 18 16 17
21 22 20 18 18 14 11 11 13 12 16 18 16 15 12 9 9 11 12 11 9 10 12 12 9 12 14 14 14 13 14 16 15 18 20 21 20 19 19 20 20 18 14
19 20 18 17 15 15 14 14 13 10 6 10 12 13 10 7 6 5 5 7 8 10 14 15 15 15 14 13 13 15 17 16 17 19 18 17 17 20 22 23 24 26 21
13 14 15 17 16 17 16 14 13 12 11 14 16 15 9 5 6 6 6 8 11 14 14 15 16 17 19 18 18 17 16 17 20 20 21 20 21 22 23 22 24 24 21
14 14 11 10 10 10 12 13 11 13 13 9 9 5 7 4 4 8 11 13 14 14 14 13 14 15 18 16 16 18 17 18 17 18 19 19 20 21 20 21 22 22 22
10 14 14 15 12 10 9 8 9 7 8 5 4 5 6 8 9 10 11 11 10 13 16 17 17 16 17 17 15 16 17 16 14 18 18 19 19 19 20 21 21 21 20
7 12 16 19 16 13 12 12 12 10 12 9 7 8 9 11 11 10 11 10 16 15 17 17 16 15 14 11 10 11 13 14 15 15 17 18 18 20 20 21 21 21 21
9 7 1 17 18 13 14 13 14 11 9 11 12 11 12 12 12 10 11 11 14 14 12 13 12 10 9 8 9 10 10 12 11 13 14 14 17 19 20 21 21 21 21
2 3 4 8 10 11 15 11 16 17 13 12 9 10 11 12 12 9 8 10 12 12 11 10 8 7 6 6 7 8 10 10 9 10 12 14 16 17 18 19 21 21 21
7 7 5 4 7 5 3 4 10 22 18 14 14 13 8 5 2 10 11 8 11 11 11 9 7 9 8 3 4 5 6 6 6 10 13 14 15 16 17 19 21 22 22
9 8 9 6 6 7 4 6 6 6 7 18 20 16 10 10 7 14 14 10 8 7 6 8 8 5 2 3 4 5 4 2 4 10 16 16 17 17 18 21 21 20 20
11 15 12 12 11 11 11 11 10 9 8 12 18 16 12 13 12 12 11 10 11 8 6 5 7 6 3 3 3 5 5 4 7 11 17 18 17 17 17 18 19 18 20
13 15 16 15 17 12 15 14 12 7 11 10 18 17 14 11 15 14 13 12 12 10 9 8 9 8 7 4 2 4 3 6 10 14 16 15 16 16 15 15 17 20 22
17 14 13 19 19 16 15 14 16 16 14 12 9 16 19 17 18 17 17 17 15 14 13 12 11 11 10 10 8 9 10 10 12 13 14 16 15 14 14 15 19 22 24
22 19 13 12 9 13 19 20 17 16 17 18 14 18 16 18 22 22 21 20 18 19 17 15 13 14 16 14 12 11 11 12 14 13 13 15 15 15 14 17 22 23 28
Wind_Direction
182 188 198 207 205 201 199 198 203 218 210 211 184 205 196 183 196 218 226 241 227 235 263 286 286 326 345 338 3 26 32 35 29 328 329 346 349 356 336 339 337 332 354
187 191 197 200 201 202 208 204 210 222 212 200 189 199 199 205 204 214 232 238 232 248 244 246 274 306 318 341 336 342 4 356 356 339 344 341 357 39 10 4 20 17 1
190 192 195 199 207 206 208 208 214 220 224 220 212 210 203 214 222 231 243 226 236 253 255 234 251 268 242 284 317 329 346 353 355 358 342 346 8 6 359 357 356 354 352
180 185 195 210 209 200 211 210 214 215 213 202 219 220 223 220 224 229 230 231 242 261 286 284 256 260 288 318 319 326 332 341 343 349 349 346 351 354 357 360 356 354 346
204 225 227 224 229 234 208 206 231 216 214 220 218 230 224 217 214 215 199 191 201 208 326 7 291 259 260 275 279 304 319 338 339 343 344 341 344 350 358 352 349 346 354
169 203 218 208 226 239 229 236 219 211 236 221 215 203 186 198 196 186 192 195 225 258 289 315 304 300 238 210 40 23 358 333 329 343 346 346 349 348 349 350 357 355 357
169 177 206 226 237 246 252 244 236 203 228 188 150 139 121 103 104 147 188 164 182 232 194 218 241 43 46 48 72 65 47 36 29 3 359 342 328 342 346 357 1 358 350
150 157 155 143 126 112 156 192 217 201 173 161 129 111 96 86 102 153 142 150 152 150 147 118 92 70 57 62 58 54 56 48 31 349 346 342 338 346 349 5 14 3 8
138 132 134 149 144 133 114 85 106 133 126 116 109 96 85 81 65 131 144 140 128 120 110 99 83 73 66 63 57 49 39 28 34 33 36 60 78 55 44 35 29 27 14
130 139 148 160 144 136 142 133 121 112 115 105 102 104 92 84 73 82 128 123 116 110 94 80 74 64 57 49 46 32 25 19 24 47 82 72 56 48 44 43 40 35 24
135 143 146 141 134 144 139 136 137 134 130 126 113 98 93 87 88 93 119 118 140 125 103 78 67 56 58 52 43 40 21 47 63 64 63 53 45 45 42 40 38 33 28
132 133 128 130 143 135 135 139 139 136 132 127 118 106 94 90 90 90 95 106 117 125 112 82 79 80 81 66 70 80 81 71 67 57 49 40 34 29 21 18 16 16 36
123 113 116 117 121 123 127 130 135 145 144 140 133 123 109 100 96 96 96 95 103 101 97 83 100 106 97 82 73 66 60 52 50 51 44 36 33 28 17 9 8 12 17
117 114 115 117 115 116 112 120 130 137 145 158 144 137 121 84 69 103 105 108 101 114 107 94 91 89 80 72 59 52 53 54 51 46 39 32 23 19 18 12 9 3 6
105 107 105 101 103 107 100 94 87 89 108 120 128 138 136 103 71 83 100 103 104 108 106 107 97 88 77 74 68 57 52 52 48 46 40 39 37 27 25 19 13 12 12
146 140 129 118 115 103 104 96 97 90 96 113 104 98 126 96 93 107 114 111 102 105 108 96 83 82 77 70 67 61 55 45 46 44 41 35 32 28 21 15 14 16 9
165 161 164 157 150 145 146 142 126 104 104 99 99 105 111 128 121 118 109 104 111 109 100 97 94 86 81 75 69 64 59 53 46 48 44 35 29 28 22 17 12 7 1
142 167 184 191 171 153 148 143 148 162 135 121 117 121 128 127 128 121 124 104 104 106 98 90 93 87 77 67 54 53 49 44 43 38 36 31 21 19 18 11 10 1 353
164 154 47 168 178 179 174 169 144 147 149 143 138 132 132 136 129 103 87 113 112 105 113 107 99 95 84 79 72 66 58 56 44 38 32 23 14 14 10 6 0 355 348
120 23 357 162 142 147 173 181 183 178 177 162 157 143 141 142 140 133 133 119 130 120 126 126 121 104 99 94 87 72 74 63 48 30 21 13 10 12 8 360 356 352 347
177 187 143 170 174 154 144 115 111 177 187 180 183 173 159 171 245 197 160 139 133 144 137 135 132 135 136 116 106 76 68 54 30 22 10 5 6 5 3 357 351 348 346
210 225 218 177 198 202 173 171 190 188 178 160 166 173 181 185 149 155 158 169 183 177 181 171 162 170 128 89 55 35 43 7 1 10 4 358 354 354 351 351 352 343 337
228 211 208 213 218 229 224 221 217 218 213 201 199 190 185 187 191 189 180 171 176 174 187 170 164 171 145 116 6 345 334 316 328 337 341 341 338 340 348 344 329 324 323
223 219 213 214 221 230 210 209 222 244 233 231 207 208 194 192 191 194 199 194 207 200 205 197 197 206 214 216 190 256 266 300 310 319 328 327 325 330 330 319 317 313 312
223 244 235 220 217 221 229 235 227 241 245 252 228 210 201 194 197 201 206 206 210 205 207 213 224 225 208 201 234 288 309 296 293 307 321 325 322 319 317 320 315 313 313
221 231 246 239 238 231 229 231 231 232 235 242 249 242 223 214 219 218 219 222 219 215 218 218 224 215 216 230 257 294 286 276 279 289 306 319 318 321 324 321 314 308 313
Height
832 837 841 844 846 847 848 851 852 853 855 855 856 858 860 862 864 865 867 869 871 872 873 874 875 875 874 873 871 869 867 865 866 865 863 860 857 853 852 851 850 849 845
830 833 837 842 844 846 848 850 851 852 852 854 855 857 858 858 860 863 865 868 870 872 873 872 872 871 872 871 869 868 868 869 868 863 859 855 854 853 853 851 850 846 843
827 831 835 838 841 843 845 848 849 851 852 853 854 855 856 857 858 861 863 864 867 869 872 871 870 869 869 869 869 869 868 867 865 862 859 856 855 854 853 850 847 843 840
822 830 834 836 839 840 844 845 847 847 850 852 854 854 855 856 857 858 859 861 864 867 868 868 869 867 868 867 867 867 866 864 863 861 859 857 856 854 852 848 843 842 840
820 825 834 836 837 838 841 843 846 846 846 849 851 853 853 855 855 854 856 858 861 863 866 867 866 865 865 865 865 864 864 862 861 860 859 857 856 853 851 850 847 843 839
819 829 832 835 835 837 839 839 843 843 848 850 851 852 851 851 852 852 853 857 859 858 858 864 865 862 862 863 863 863 863 862 861 861 860 858 856 854 852 850 847 843 842
823 827 828 830 832 834 837 838 839 840 846 843 847 850 849 850 850 849 851 854 857 858 861 865 864 862 862 862 862 862 863 862 861 861 860 858 855 853 851 849 847 846 845
819 822 823 829 832 833 835 835 836 836 839 841 844 847 848 848 848 848 849 852 856 860 863 864 863 861 861 861 862 862 862 861 860 860 859 857 855 853 850 848 848 846 844
818 821 824 830 833 834 835 836 833 831 839 842 842 843 847 847 847 846 848 852 855 858 861 862 862 862 862 862 862 862 862 861 860 859 857 857 855 854 852 849 847 845 844
817 821 826 832 833 834 835 837 839 838 838 841 844 846 848 847 849 849 849 852 855 858 861 863 863 864 864 863 862 862 861 861 859 857 856 857 856 855 853 851 849 849 848
820 826 827 831 833 834 835 836 841 841 842 844 846 848 847 850 851 853 853 854 854 859 862 865 866 866 866 865 863 861 862 862 860 859 858 857 857 856 854 853 853 853 852
824 828 830 831 833 835 836 837 840 841 843 845 846 848 849 853 855 856 856 857 860 859 862 864 866 865 864 863 864 861 863 863 861 860 859 859 858 857 856 856 856 855 856
827 830 831 832 834 837 839 839 840 842 843 845 847 849 851 852 853 854 858 858 860 861 863 865 865 864 864 864 864 863 864 864 864 861 861 862 862 860 858 856 856 855 854
831 832 835 835 838 839 840 841 841 844 846 847 847 849 852 852 852 853 858 858 859 861 863 865 865 864 865 867 865 866 865 865 866 864 864 863 861 858 859 860 858 855 854
836 837 839 839 841 841 842 844 846 846 847 849 848 849 852 855 854 853 856 858 858 859 863 866 864 864 866 867 867 867 869 868 867 866 866 863 862 862 863 862 861 859 858
839 839 841 842 843 846 845 847 850 851 849 850 851 852 851 854 857 856 856 856 860 864 863 864 868 868 868 870 870 870 871 871 870 869 868 867 865 864 864 864 863 861 860
838 839 840 842 843 846 845 849 850 853 850 852 852 853 853 855 858 858 859 859 860 863 866 867 868 872 872 872 874 874 873 874 874 872 870 871 870 867 865 866 864 863 861
838 838 839 843 842 843 844 844 846 853 848 851 854 855 855 857 858 862 862 863 863 864 867 868 871 872 872 876 878 878 876 875 876 875 873 873 874 872 869 869 865 866 863
837 836 839 838 840 843 844 844 845 850 853 853 855 856 856 858 861 863 863 864 865 865 868 871 872 873 874 879 880 879 878 877 878 877 876 876 875 872 870 869 868 867 867
836 837 839 840 840 841 842 843 844 850 854 854 856 858 858 859 860 863 865 866 865 868 870 872 873 874 877 881 882 879 877 878 878 878 878 876 874 873 871 871 869 867 866
836 838 841 844 843 843 844 844 845 847 850 853 856 859 860 862 863 864 866 867 867 870 872 875 877 876 876 879 880 879 879 879 879 878 879 877 874 872 871 868 868 867 865
837 838 841 842 843 844 843 844 847 850 851 852 853 856 857 859 862 864 866 867 869 871 873 874 877 877 876 876 877 878 879 880 877 877 877 876 875 872 868 867 866 866 864
836 838 840 841 842 843 844 845 847 849 850 849 851 852 853 855 858 861 863 866 868 869 871 873 874 876 875 874 875 877 878 877 875 874 875 874 872 869 866 866 865 863 860
835 837 837 839 840 842 843 844 845 847 847 848 848 849 850 852 854 858 861 864 867 868 870 871 871 873 873 874 875 875 874 874 874 872 871 871 870 867 866 864 862 860 857
832 834 835 836 837 838 840 841 842 843 845 846 846 847 847 849 852 855 857 861 863 865 867 868 868 869 870 871 872 872 871 871 870 870 869 868 865 864 863 860 858 856 854
828 830 831 832 833 835 836 837 838 840 841 842 843 844 845 847 850 851 853 856 858 859 861 862 863 864 864 866 866 866 866 866 867 865 865 864 861 859 857 856 856 853 850